Weather in Urusovskaya

Russia / Vologda Oblast     60°42′38″N   42°35′45″E
temp.,
°C
wind,
m/s
gust,
m/s
humid.,
%
clouds,
%
prec.,
mm/h
press.,
hPa
HPBL,
m
14 april, wed
wed1400:00+10ssw4129198 0.0 1021349
03:00+8ssw31091100 0.0 1021229
06:00+8s310906 0.4 1019204
09:00+13ssw4136871 0.4 1018445
12:00+18ssw61356100 0.0 10171279
15:00+18ssw6145875 0.0 10161893
18:00+16sw61268100 0.4 10151157
21:00+10nw5895100 2.9 1018572
15 april, thu
thu1500:00+5nnw4887100 1.0 1020598
03:00+5n378589 1.4 1022646
06:00+3n379142 0.0 1023539
09:00+5n466388 0.0 1026921
12:00+7nne4646100 0.0 10271246
15:00+8nne4636100 0.0 10281442
18:00+7nne36435 0.0 10291083
21:00+2nne29690 0.0 1031227
16 april, fri
fri1600:000nne28770 0.0 1032173
03:00−1ne25750 0.0 1033116
06:000ne13705 0.0 1034102
09:00+5ne12425 0.0 1034615
12:00+8nne23315 0.0 10331094
15:00+10n23300 0.0 10331291
18:00+8n23430 0.0 103276
21:00+3n22640 0.0 103317
17 april, sat
sat1700:00+2n22775 0.0 103419
03:00+1n11871 0.0 103410
06:00+1nnw12864 0.0 103564
09:00+7nnw24605 0.0 1035603
12:00+10nnw35445 0.0 10341339
15:00+11n34405 0.0 10331595
18:00+10nnw35485 0.0 1032374
21:00+5nw25705 0.0 103295
18 april, sun
sun1800:00+4nnw25815 0.0 1033108
03:00+2nnw23880 0.0 103341
06:00+2nnw28860 0.0 1034221
09:00+7n34605 0.0 1034681
12:00+10n344813 0.0 10341450
15:00+10ne454993 0.0 10341460
18:00+8ene346082 0.0 1034884
21:00+4e237971 0.0 103563